[[{"header":{"parameterUnit":"m.s-1","parameterCategory":1,"la1":30.2991,"la2":30.254,"lo1":-89.0895,"lo2":-89.0444,"dy":0.0017,"dx":0.0017,"nx":28,"ny":28,"refTime":"2024-04-27T03:00:00:Z","depth":0,"parameterNumber":2,"parameterNumberName":"U-component_of_WINDS"},"data":[0,0,0,0,0,0,0,0,0,0,0,0,0,0,0,0,0,0,0,0,0,0,0,0,0,0,0,0,0,0,0,0,0,0,0,0,0,0,0,0,0,0,0,0,0,0,0,0,0,0,0,0,0,0,0,0,0,0,-7.5522,-7.5523,0,-7.5598,-7.5599,-7.56,-7.554,-7.5538,-7.5535,-7.5533,-7.5606,-7.561,-7.5614,0,0,0,0,0,0,0,0,0,0,0,0,0,-7.5323,-7.5327,-7.5522,-7.5523,-7.5524,-7.5598,-7.5599,-7.56,-7.5541,-7.5538,-7.5535,-7.5532,-7.5605,-7.561,-7.5615,0,0,0,0,0,0,0,0,0,0,0,0,0,-7.5405,-7.5328,-7.5522,-7.5503,-7.5502,-7.5597,-7.5599,-7.56,-7.5541,-7.5538,-7.5534,-7.553,-7.5603,-7.5609,-7.5615,-7.5731,0,0,-7.5635,-7.5638,0,0,0,0,0,0,0,0,-7.54,-7.5412,-7.5505,-7.5505,-7.5504,-7.5556,-7.5555,-7.5644,-7.5542,-7.5527,-7.5533,-7.5529,-7.5592,-7.5599,-7.5622,-7.5734,-7.5738,-7.5636,-7.564,-7.5642,-7.5644,0,0,0,0,0,0,0,-7.5395,-7.5409,-7.5552,-7.5506,-7.5506,-7.549,-7.5498,-7.5572,-7.5579,-7.5528,-7.5524,-7.5534,-7.5591,-7.5615,-7.5623,-7.5739,-7.5636,-7.5641,-7.5645,-7.5648,-7.5951,-7.5955,0,0,0,0,0,0,-7.5391,-7.5404,-7.5549,-7.5554,-7.5442,-7.5497,-7.5506,-7.5543,-7.5578,-7.558,-7.5537,-7.5531,-7.5606,-7.5615,-7.5625,-7.5762,-7.5642,-7.5648,-7.5652,-7.5947,-7.5952,-7.5957,0,0,0,0,0,0,-7.5387,-7.5405,-7.5546,-7.5478,-7.5495,-7.5505,-7.5547,-7.5546,-7.5571,-7.5586,-7.5586,-7.5561,-7.5604,-7.5616,-7.5706,-7.5764,-7.5651,-7.5657,-7.5942,-7.5949,-7.5955,-7.6038,0,0,0,0,0,0,-7.5382,-7.5404,-7.5448,-7.548,-7.5499,-7.5626,-7.5551,-7.5551,-7.5583,-7.5575,-7.5608,-7.561,-7.5602,-7.5696,-7.5712,-7.5771,-7.5662,-7.5937,-7.5945,-7.5953,-7.603,-7.6046,-7.606,0,0,0,0,0,-7.5375,-7.5467,-7.5451,-7.5468,-7.5555,-7.563,-7.564,-7.5631,-7.5588,-7.5632,-7.5642,-7.5609,-7.5756,-7.5706,-7.5723,-7.5785,-7.5933,-7.5943,-7.5952,-7.6023,-7.6043,-7.606,0,0,0,0,0,0,-7.5439,-7.5471,-7.5453,-7.5558,-7.5592,-7.562,-7.5674,-7.5652,-7.5697,-7.5688,-7.5673,-7.5681,-7.5776,-7.579,-7.5733,-7.5899,-7.5838,-7.5851,-7.5886,-7.5905,-7.592,-7.5912,-7.5668,0,0,0,0,0,-7.5466,-7.5526,-7.555,-7.564,-7.5659,-7.5665,-7.5697,-7.5687,-7.572,-7.5734,-7.575,-7.5783,-7.5837,-7.5872,-7.5923,-7.6033,-7.6039,-7.6084,-7.61,-7.6112,-7.6122,-7.6182,-7.6202,-7.5988,-7.5988,-7.5988,0,0,-7.5521,-7.5546,-7.5584,-7.5654,-7.5679,-7.574,-7.5676,-7.5743,-7.5788,-7.5743,-7.5829,-7.5843,-7.5879,-7.598,-7.6025,-7.5994,-7.6184,-7.6124,-7.6134,-7.6137,-7.6194,-7.6214,-7.6232,-7.5994,-7.5993,-7.5992,0,0,-7.5652,-7.5678,-7.5756,-7.5784,-7.5824,-7.5827,-7.5847,-7.5879,-7.5887,-7.5974,-7.5942,-7.5995,-7.6088,-7.6115,-7.6141,-7.6288,-7.6258,-7.6305,-7.6382,-7.644,-7.6457,-7.6472,-7.6523,-7.6541,-7.6316,-7.6316,-7.6316,0,-7.5714,-7.5806,-7.5798,-7.5869,-7.59,-7.5867,-7.5945,-7.5972,-7.6026,-7.6048,-7.6014,-7.6132,-7.6154,-7.626,-7.6297,-7.632,-7.634,-7.6298,-7.6456,-7.6471,-7.6484,-7.6532,-7.6552,-7.6321,-7.6321,-7.632,-7.632,0,-7.588,-7.5945,-7.6003,-7.6058,-7.6097,-7.6171,-7.6174,-7.6215,-7.6204,-7.6211,-7.63,-7.6326,-7.6381,-7.6407,-7.6395,-7.6513,-7.6492,-7.6458,-7.6395,-7.651,-7.6555,-7.6573,-7.6329,-7.6327,-7.6325,-7.6324,0,0,-7.6048,-7.6102,-7.6123,-7.6148,-7.6192,-7.6241,-7.6315,-7.6371,-7.6405,-7.6445,-7.6505,-7.6587,-7.6557,-7.6586,-7.6578,-7.663,-7.6743,-7.6589,-7.6589,-7.6614,-7.6873,-7.6896,-7.6918,-7.6726,-7.673,-7.6733,-7.6869,0,-7.6179,-7.6308,-7.6305,-7.6424,-7.6483,-7.6455,-7.6519,-7.6552,-7.6563,-7.6614,-7.6625,-7.6682,-7.6638,-7.6656,-7.6707,-7.6719,-7.6794,-7.6709,-7.678,-7.6782,-7.6768,-7.6941,-7.6966,-7.7093,-7.6887,-7.689,-7.6892,0,-7.6348,-7.6396,-7.6521,-7.6558,-7.6583,-7.664,-7.6693,-7.6743,-7.6781,-7.6785,-7.6821,-7.6806,-7.688,-7.6819,-7.692,-7.6863,-7.6892,-7.6903,-7.6908,-7.6911,-7.6841,-7.6946,-7.7133,-7.7151,-7.692,-7.6918,-7.6916,0,-7.6455,-7.6551,-7.6639,-7.6662,-7.6708,-7.6749,-7.677,-7.6804,-7.6839,-7.6886,-7.6908,-7.6962,-7.699,-7.7033,-7.7032,-7.6988,-7.7135,-7.7074,-7.7138,-7.7138,-7.7166,-7.7164,-7.7358,-7.7192,-7.7191,-7.7191,-7.7191,0,-7.6599,-7.6676,-7.6688,-7.6741,-7.6827,-7.6825,-7.691,-7.6927,-7.6959,-7.7014,-7.6994,-7.7047,-7.7045,-7.7098,-7.7099,-7.7182,-7.7196,-7.72,-7.7199,-7.72,-7.7199,-7.7216,-7.7206,-7.7196,-7.7195,-7.7194,-7.7193,0,-7.6731,-7.6742,-7.6835,-7.6873,-7.6885,-7.6946,-7.6978,-7.7029,-7.704,-7.711,-7.7127,-7.7143,-7.7205,-7.7211,-7.7282,-7.7283,-7.7383,-7.7374,-7.737,-7.7367,-7.7431,-7.7424,-7.7639,-7.7667,-7.7486,-7.7488,-7.7489,0,-7.6821,-7.688,-7.6925,-7.6962,-7.6986,-7.7046,-7.7082,-7.7083,-7.7122,-7.7172,-7.7217,-7.7278,-7.7326,-7.7427,-7.7444,-7.7499,-7.7489,-7.7561,-7.7497,-7.7497,-7.7487,-7.7482,-7.7487,-7.7572,-7.7574,-7.7576,-7.7577,0,-7.6978,-7.6981,-7.7035,-7.7092,-7.7137,-7.7181,-7.7223,-7.7254,-7.726,-7.7305,-7.737,-7.7408,-7.7483,-7.7543,-7.7598,-7.7619,-7.7599,-7.7598,-7.7615,-7.7615,-7.761,-7.7611,-7.7401,-7.7592,-7.759,-7.7589,-7.7588,-7.7588,-7.7089,-7.7141,-7.7181,-7.7243,-7.7275,-7.7315,-7.7365,-7.7384,-7.7438,-7.75,-7.7498,-7.7569,-7.7608,-7.768,-7.7706,-7.7761,-7.7736,-7.7762,-7.7768,-7.7773,-7.7779,-7.7605,-7.7771,-7.7771,-7.7771,-7.777,-7.777,0,-7.7243,-7.7269,-7.7326,-7.7386,-7.7435,-7.7416,-7.7462,-7.7503,-7.7566,-7.7605,-7.7655,-7.773,-7.7789,-7.7813,-7.7871,-7.7911,-7.7903,-7.7926,-7.7921,-7.7926,-7.7798,-7.7776,-7.7931,-7.7931,-7.7931,-7.7931,-7.7931,-7.7931,-7.7328,-7.7415,-7.7424,-7.7526,-7.7551,-7.7622,-7.765,-7.7687,-7.7718,-7.7803,-7.7854,-7.787,-7.7903,-7.7964,-7.8018,-7.8024,-7.8045,-7.8071,-7.8072,-7.7951,-7.7935,-7.7919,-7.7898,-7.8076,-7.8076,-7.8194,-7.8196,-7.8196]},{"header":{"parameterUnit":"m.s-1","parameterCategory":1,"la1":30.2991,"la2":30.254,"lo1":-89.0895,"lo2":-89.0444,"dy":0.0017,"dx":0.0017,"nx":28,"ny":28,"refTime":"2024-04-27T03:00:00:Z","depth":0,"parameterNumber":3,"parameterNumberName":"V-component_of_WINDS"},"data":[0,0,0,0,0,0,0,0,0,0,0,0,0,0,0,0,0,0,0,0,0,0,0,0,0,0,0,0,0,0,0,0,0,0,0,0,0,0,0,0,0,0,0,0,0,0,0,0,0,0,0,0,0,0,0,0,0,0,3.7692,3.7692,0,3.7685,3.7685,3.7685,3.7681,3.7681,3.7681,3.7681,3.7669,3.7668,3.7668,0,0,0,0,0,0,0,0,0,0,0,0,0,3.77,3.7699,3.7692,3.7692,3.7692,3.7685,3.7685,3.7685,3.7681,3.7681,3.7681,3.7681,3.7669,3.7668,3.7668,0,0,0,0,0,0,0,0,0,0,0,0,0,3.7695,3.7699,3.7692,3.769,3.7689,3.7685,3.7685,3.7685,3.7681,3.7681,3.7681,3.7681,3.7669,3.7668,3.7668,3.7664,0,0,3.7666,3.7666,0,0,0,0,0,0,0,0,3.7695,3.7694,3.769,3.769,3.769,3.7684,3.7683,3.7678,3.7681,3.7684,3.7681,3.7681,3.7673,3.7673,3.7671,3.7664,3.7663,3.7666,3.7666,3.7666,3.7665,0,0,0,0,0,0,0,3.7695,3.7695,3.7689,3.769,3.769,3.7688,3.7687,3.7682,3.7679,3.7684,3.7684,3.7683,3.7673,3.7672,3.7671,3.7663,3.7666,3.7666,3.7665,3.7665,3.7655,3.7655,0,0,0,0,0,0,3.7697,3.7695,3.769,3.7689,3.7693,3.7688,3.7687,3.7686,3.7679,3.7678,3.7683,3.7683,3.7672,3.7671,3.767,3.7667,3.7666,3.7665,3.7665,3.7655,3.7655,3.7655,0,0,0,0,0,0,3.7697,3.7696,3.769,3.7692,3.7691,3.7688,3.7686,3.7686,3.7684,3.7678,3.7677,3.7682,3.7672,3.7671,3.7667,3.7667,3.7665,3.7664,3.7655,3.7655,3.7655,3.7661,0,0,0,0,0,0,3.7697,3.7696,3.7695,3.7692,3.7691,3.7688,3.7686,3.7686,3.7684,3.7684,3.7677,3.7676,3.7672,3.7668,3.7666,3.7666,3.7664,3.7655,3.7655,3.7655,3.766,3.7661,3.7661,0,0,0,0,0,3.7697,3.7695,3.7695,3.7695,3.769,3.7688,3.7687,3.7684,3.7684,3.7683,3.768,3.7676,3.7667,3.7667,3.7666,3.7665,3.7655,3.7655,3.7655,3.766,3.7661,3.7661,0,0,0,0,0,0,3.7696,3.7695,3.7695,3.7692,3.769,3.7687,3.7685,3.7684,3.7681,3.7681,3.7676,3.7675,3.7671,3.7668,3.7668,3.7663,3.7661,3.7661,3.7665,3.7666,3.7666,3.7667,3.7664,0,0,0,0,0,3.7696,3.7695,3.7693,3.7691,3.769,3.7688,3.7687,3.7686,3.7683,3.7681,3.7677,3.7674,3.7671,3.7668,3.7664,3.7661,3.766,3.766,3.766,3.7661,3.766,3.766,3.766,3.7656,3.7656,3.7656,0,0,3.7694,3.7693,3.7692,3.7691,3.7689,3.7688,3.7687,3.7685,3.7684,3.768,3.7677,3.7675,3.767,3.7667,3.7665,3.7664,3.7662,3.7661,3.7661,3.766,3.766,3.7661,3.7661,3.7656,3.7656,3.7656,0,0,3.7691,3.769,3.7689,3.7689,3.7688,3.7687,3.7687,3.7685,3.7684,3.7681,3.7679,3.7677,3.7671,3.7669,3.7667,3.7667,3.7665,3.7666,3.7668,3.7668,3.7668,3.7669,3.767,3.767,3.7666,3.7666,3.7666,0,3.7688,3.7688,3.7688,3.7688,3.7687,3.7687,3.7686,3.7685,3.7682,3.7682,3.7681,3.7676,3.7672,3.767,3.767,3.7668,3.7668,3.7666,3.7669,3.7669,3.7669,3.767,3.767,3.7666,3.7666,3.7666,3.7666,0,3.7686,3.7685,3.7685,3.7685,3.7685,3.7684,3.7684,3.7683,3.7683,3.7682,3.7681,3.7678,3.7675,3.7674,3.7672,3.7672,3.7671,3.767,3.7667,3.767,3.7671,3.7671,3.7667,3.7667,3.7667,3.7666,0,0,3.7678,3.7682,3.7682,3.7683,3.7684,3.7683,3.7683,3.7683,3.7683,3.7682,3.7682,3.7678,3.7678,3.7676,3.7674,3.7674,3.7677,3.7673,3.7673,3.7674,3.7678,3.7679,3.768,3.7676,3.7676,3.7676,3.7679,0,3.7676,3.7677,3.7679,3.7679,3.768,3.7682,3.7682,3.7682,3.7682,3.7682,3.7681,3.768,3.7679,3.7678,3.7678,3.7677,3.7677,3.7676,3.7675,3.7675,3.7676,3.768,3.7681,3.7683,3.7679,3.7679,3.7679,0,3.7672,3.7674,3.7675,3.7679,3.7679,3.7679,3.7681,3.7681,3.7682,3.7682,3.7682,3.7681,3.7681,3.768,3.768,3.7679,3.7679,3.7679,3.7679,3.7678,3.7677,3.7679,3.7684,3.7684,3.7679,3.7679,3.7679,0,3.7668,3.7671,3.7673,3.7674,3.7677,3.7678,3.7679,3.768,3.7681,3.7682,3.7682,3.7682,3.7682,3.7682,3.7682,3.7681,3.7682,3.7681,3.7682,3.7682,3.7681,3.7681,3.7686,3.7682,3.7682,3.7682,3.7682,0,3.7664,3.7665,3.7671,3.7672,3.7674,3.7677,3.7678,3.7679,3.7681,3.7682,3.7682,3.7683,3.7683,3.7683,3.7683,3.7684,3.7684,3.7684,3.7683,3.7683,3.7684,3.7683,3.7682,3.7682,3.7682,3.7682,3.7682,0,3.7659,3.7663,3.7666,3.7671,3.7672,3.7673,3.7677,3.7678,3.768,3.7681,3.7682,3.7684,3.7685,3.7686,3.7686,3.7686,3.7687,3.7687,3.7688,3.7688,3.7689,3.7689,3.7693,3.7694,3.7689,3.7689,3.7689,0,3.7657,3.7658,3.7664,3.7667,3.7669,3.7672,3.7674,3.7677,3.7678,3.7682,3.7683,3.7685,3.7686,3.7689,3.7689,3.769,3.769,3.7691,3.769,3.7691,3.7691,3.7691,3.7691,3.7691,3.7691,3.7691,3.7691,0,3.7652,3.7655,3.7659,3.7664,3.7667,3.767,3.7674,3.7675,3.7679,3.7681,3.7684,3.7685,3.7688,3.769,3.7693,3.7693,3.7693,3.7692,3.7693,3.7693,3.7693,3.7694,3.7689,3.7692,3.7692,3.7692,3.7692,3.7692,3.7648,3.7651,3.7657,3.7661,3.7665,3.7669,3.7671,3.7675,3.7678,3.7682,3.7684,3.7687,3.769,3.7693,3.7695,3.7697,3.7696,3.7696,3.7697,3.7697,3.7697,3.7694,3.7697,3.7697,3.7697,3.7697,3.7697,0,3.7644,3.765,3.7654,3.7661,3.7665,3.7667,3.7672,3.7675,3.7678,3.7682,3.7685,3.769,3.7693,3.7696,3.7699,3.77,3.77,3.7701,3.77,3.7701,3.7697,3.7697,3.7701,3.7701,3.7701,3.7701,3.7701,3.7701,3.7643,3.7648,3.7652,3.7659,3.7663,3.7669,3.7671,3.7675,3.7679,3.7685,3.7688,3.7691,3.7695,3.7699,3.7702,3.7703,3.7704,3.7704,3.7705,3.7701,3.7701,3.77,3.77,3.7705,3.7705,3.7708,3.7708,3.7708]}]]